軌道要素
Epoch 2006 Nov. 1.0 TT = JDT 2454040.5
T 2006 Nov. 19.79618 TT MPC
q 1.6034324 (2000.0) P Q
n 0.15219803 Peri. 0.12382 +0.10081209 -0.85765905
a 3.4742684 Node 84.10733 +0.91237161 -0.12241828
e 0.5384835 Incl. 30.45879 +0.39675555 +0.49943440
P 6.48
From 208 observations 1987 Sept. 27-2006 Aug. 30, mean residual 0".93. Non-
gravitational parameters A1 = +0.15 +/- 0.04, A2 = -0.0360 +/- 0.0003.
|